| time (UTC) | temp F | wind direction | speed MPH | gust MPH | rain 1hr in | rain 24hr in | rain mn in | humidity % | barometer mb |
| 20260506084106 | 51 | 37 | 8.0 | 15.0 | 0.00 | 0.00 | 0.00 | 67 | 1014.4 |
| 20260506083606 | 51 | 55 | 6.0 | 17.0 | 0.00 | 0.00 | 0.00 | 67 | 1014.4 |
| 20260506083108 | 50 | 77 | 9.0 | 17.0 | 0.00 | 0.00 | 0.00 | 66 | 1014.4 |
| 20260506081606 | 49 | 38 | 7.0 | 14.0 | 0.00 | 0.00 | 0.00 | 69 | 1014.5 |
| 20260506081107 | 49 | 69 | 5.0 | 14.0 | 0.00 | 0.00 | 0.00 | 70 | 1014.5 |
| 20260506080107 | 50 | 59 | 8.0 | 16.0 | 0.00 | 0.00 | 0.00 | 68 | 1014.5 |
| 20260506073107 | 49 | 41 | 5.0 | 15.0 | 0.00 | 0.00 | 0.00 | 71 | 1014.3 |
| 20260506071606 | 47 | 36 | 6.0 | 14.0 | 0.00 | 0.00 | 0.00 | 77 | 1014.2 |
| 20260506070607 | 46 | 18 | 6.0 | 12.0 | 0.00 | 0.00 | 0.00 | 82 | 1014.2 |
| 20260506070106 | 46 | 349 | 3.0 | 8.0 | 0.00 | 0.00 | 0.00 | 82 | 1014.2 |
| 20260506061606 | 46 | 333 | 3.0 | 9.0 | 0.00 | 0.00 | 0.00 | 82 | 1013.9 |
| 20260506061106 | 45 | 3 | 5.0 | 9.0 | 0.00 | 0.00 | 0.00 | 82 | 1013.9 |
| 20260506060606 | 45 | 2 | 4.0 | 9.0 | 0.00 | 0.00 | 0.00 | 83 | 1013.9 |
| 20260506051106 | 44 | 353 | 3.0 | 8.0 | 0.00 | 0.00 | 0.00 | 85 | 1013.8 |
| 20260506050106 | 43 | 349 | 5.0 | 10.0 | 0.00 | 0.00 | 0.00 | 85 | 1013.8 |
| 20260506044607 | 43 | 337 | 5.0 | 10.0 | 0.00 | 0.00 | 0.00 | 85 | 1013.8 |
| 20260506044106 | 43 | 343 | 6.0 | 9.0 | 0.00 | 0.00 | 0.00 | 85 | 1013.7 |
| 20260506043608 | 43 | 348 | 5.0 | 9.0 | 0.00 | 0.00 | 0.00 | 85 | 1013.7 |
| 20260506043106 | 43 | 354 | 5.0 | 9.0 | 0.00 | 0.00 | 0.00 | 85 | 1013.7 |
| 20260506041107 | 43 | 346 | 5.0 | 8.0 | 0.00 | 0.00 | 0.00 | 86 | 1013.8 |
| 20260506040607 | 43 | 353 | 3.0 | 8.0 | 0.00 | 0.00 | 0.00 | 86 | 1013.8 |
| 20260506034606 | 42 | 333 | 1.0 | 5.0 | 0.00 | 0.00 | 0.00 | 87 | 1013.9 |
| 20260506034106 | 42 | 340 | 3.0 | 6.0 | 0.00 | 0.00 | 0.00 | 87 | 1013.8 |
| 20260506033606 | 42 | 332 | 2.0 | 6.0 | 0.00 | 0.00 | 0.00 | 87 | 1013.9 |
| 20260506033106 | 42 | 329 | 2.0 | 6.0 | 0.00 | 0.00 | 0.00 | 86 | 1013.9 |
| 20260506031606 | 42 | 347 | 3.0 | 9.0 | 0.00 | 0.00 | 0.00 | 86 | 1014.0 |
| 20260506031106 | 42 | 1 | 4.0 | 9.0 | 0.00 | 0.00 | 0.00 | 85 | 1013.9 |
| 20260506030606 | 42 | 351 | 5.0 | 9.0 | 0.00 | 0.00 | 0.00 | 85 | 1013.8 |
| 20260506030106 | 42 | 342 | 6.0 | 9.0 | 0.00 | 0.00 | 0.00 | 85 | 1013.8 |
| 20260506024607 | 42 | 335 | 4.0 | 10.0 | 0.00 | 0.00 | 0.00 | 85 | 1013.8 |
| 20260506023607 | 42 | 330 | 3.0 | 8.0 | 0.00 | 0.00 | 0.00 | 85 | 1013.9 |
| 20260506023107 | 42 | 334 | 4.0 | 8.0 | 0.00 | 0.00 | 0.00 | 85 | 1013.9 |
| 20260506021606 | 42 | 340 | 3.0 | 8.0 | 0.00 | 0.00 | 0.00 | 85 | 1014.1 |
| 20260506020107 | 42 | 310 | 3.0 | 7.0 | 0.00 | 0.00 | 0.00 | 86 | 1014.1 |
| 20260506014106 | 42 | 325 | 2.0 | 8.0 | 0.00 | 0.00 | 0.00 | 86 | 1014.1 |
| 20260506013106 | 42 | 318 | 3.0 | 8.0 | 0.00 | 0.00 | 0.00 | 87 | 1014.1 |
| 20260506011605 | 42 | 318 | 1.0 | 7.0 | 0.00 | 0.00 | 0.00 | 87 | 1014.1 |
| 20260506011106 | 42 | 305 | 3.0 | 7.0 | 0.00 | 0.00 | 0.00 | 87 | 1014.2 |
| 20260506010606 | 42 | 288 | 2.0 | 7.0 | 0.00 | 0.00 | 0.00 | 86 | 1014.1 |
| 20260506010107 | 42 | 328 | 2.0 | 5.0 | 0.00 | 0.00 | 0.00 | 87 | 1014.1 |
| 20260506004606 | 42 | 322 | 3.0 | 9.0 | 0.00 | 0.00 | 0.00 | 86 | 1014.2 |
| 20260506003105 | 43 | 309 | 2.0 | 5.0 | 0.00 | 0.00 | 0.00 | 86 | 1014.3 |
| 20260506001606 | 43 | 296 | 2.0 | 6.0 | 0.00 | 0.00 | 0.00 | 86 | 1014.4 |
| 20260506000607 | 43 | 314 | 3.0 | 6.0 | 0.00 | 0.00 | 0.00 | 86 | 1014.3 |
| 20260506000106 | 43 | 332 | 3.0 | 6.0 | 0.00 | 0.00 | 0.00 | 86 | 1014.3 |
| 20260505234606 | 43 | 334 | 4.0 | 8.0 | 0.00 | 0.00 | 0.00 | 85 | 1014.4 |
| 20260505234106 | 44 | 328 | 2.0 | 6.0 | 0.00 | 0.00 | 0.00 | 85 | 1014.5 |
| 20260505233606 | 44 | 336 | 3.0 | 7.0 | 0.00 | 0.00 | 0.00 | 85 | 1014.5 |
| 20260505233106 | 44 | 323 | 2.0 | 7.0 | 0.00 | 0.00 | 0.00 | 85 | 1014.5 |
| 20260505231607 | 44 | 343 | 3.0 | 8.0 | 0.00 | 0.00 | 0.00 | 85 | 1014.6 |
| 20260505231106 | 44 | 342 | 3.0 | 8.0 | 0.00 | 0.00 | 0.00 | 84 | 1014.5 |
| 20260505230606 | 44 | 338 | 5.0 | 8.0 | 0.00 | 0.00 | 0.00 | 84 | 1014.5 |
| 20260505230106 | 44 | 333 | 5.0 | 9.0 | 0.00 | 0.00 | 0.00 | 84 | 1014.5 |
| 20260505223607 | 45 | 350 | 5.0 | 9.0 | 0.00 | 0.00 | 0.00 | 83 | 1014.6 |
| 20260505223106 | 45 | 355 | 5.0 | 9.0 | 0.00 | 0.00 | 0.00 | 83 | 1014.6 |
| 20260505221606 | 45 | 357 | 6.0 | 10.0 | 0.00 | 0.00 | 0.00 | 83 | 1014.7 |
| 20260505221106 | 45 | 357 | 6.0 | 10.0 | 0.00 | 0.00 | 0.00 | 82 | 1014.7 |
| 20260505220606 | 45 | 358 | 6.0 | 10.0 | 0.00 | 0.00 | 0.00 | 82 | 1014.8 |
| 20260505220106 | 45 | 353 | 4.0 | 12.0 | 0.00 | 0.00 | 0.00 | 82 | 1014.8 |
| 20260505214606 | 46 | 3 | 8.0 | 12.0 | 0.00 | 0.00 | 0.00 | 81 | 1014.7 |
| 20260505214107 | 46 | 354 | 6.0 | 12.0 | 0.00 | 0.00 | 0.00 | 81 | 1014.7 |
| 20260505213606 | 46 | 350 | 7.0 | 13.0 | 0.00 | 0.00 | 0.00 | 80 | 1014.7 |
| 20260505213106 | 46 | 0 | 8.0 | 13.0 | 0.00 | 0.00 | 0.00 | 80 | 1014.7 |
| 20260505211606 | 47 | 348 | 7.0 | 13.0 | 0.00 | 0.00 | 0.00 | 79 | 1014.6 |
| 20260505211107 | 47 | 350 | 7.0 | 13.0 | 0.00 | 0.00 | 0.00 | 79 | 1014.7 |
| 20260505210606 | 47 | 353 | 7.0 | 15.0 | 0.00 | 0.00 | 0.00 | 78 | 1014.6 |
| 20260505204607 | 47 | 4 | 7.0 | 15.0 | 0.00 | 0.00 | 0.00 | 77 | 1014.6 |
| 20260505204106 | 47 | 354 | 10.0 | 15.0 | 0.00 | 0.00 | 0.00 | 77 | 1014.5 |
| 20260505203106 | 48 | 357 | 7.0 | 15.0 | 0.00 | 0.00 | 0.00 | 76 | 1014.5 |
| 20260505201606 | 48 | 348 | 8.0 | 16.0 | 0.00 | 0.00 | 0.00 | 75 | 1014.4 |
| 20260505201106 | 48 | 3 | 11.0 | 20.0 | 0.00 | 0.00 | 0.00 | 75 | 1014.4 |
| 20260505200606 | 48 | 9 | 13.0 | 20.0 | 0.00 | 0.00 | 0.00 | 75 | 1014.4 |
| 20260505200106 | 48 | 6 | 11.0 | 18.0 | 0.00 | 0.00 | 0.00 | 75 | 1014.4 |
| 20260505194606 | 49 | 6 | 12.0 | 16.0 | 0.00 | 0.00 | 0.00 | 74 | 1014.3 |
| 20260505193606 | 49 | 343 | 10.0 | 17.0 | 0.00 | 0.00 | 0.00 | 74 | 1014.4 |
| 20260505193106 | 49 | 348 | 12.0 | 18.0 | 0.00 | 0.00 | 0.00 | 73 | 1014.3 |
| 20260505191105 | 49 | 4 | 7.0 | 20.0 | 0.00 | 0.00 | 0.00 | 74 | 1014.2 |
| 20260505190607 | 49 | 2 | 10.0 | 20.0 | 0.00 | 0.00 | 0.00 | 74 | 1014.2 |
| 20260505190107 | 50 | 0 | 10.0 | 20.0 | 0.00 | 0.00 | 0.00 | 74 | 1014.1 |
| 20260505184106 | 50 | 346 | 9.0 | 17.0 | 0.00 | 0.00 | 0.00 | 75 | 1014.0 |
| 20260505183606 | 50 | 347 | 7.0 | 17.0 | 0.00 | 0.00 | 0.00 | 75 | 1014.0 |
| 20260505183106 | 50 | 12 | 8.0 | 20.0 | 0.00 | 0.00 | 0.00 | 75 | 1014.0 |
| 20260505181606 | 51 | 358 | 9.0 | 20.0 | 0.00 | 0.00 | 0.00 | 74 | 1013.9 |
| 20260505181105 | 51 | 29 | 8.0 | 20.0 | 0.00 | 0.00 | 0.00 | 74 | 1013.8 |
| 20260505180606 | 51 | 8 | 11.0 | 20.0 | 0.00 | 0.00 | 0.00 | 73 | 1013.8 |
| 20260505180105 | 51 | 353 | 10.0 | 20.0 | 0.00 | 0.00 | 0.00 | 72 | 1013.9 |
| 20260505174106 | 52 | 9 | 10.0 | 16.0 | 0.00 | 0.00 | 0.00 | 72 | 1013.7 |
| 20260505173106 | 52 | 9 | 12.0 | 18.0 | 0.00 | 0.00 | 0.00 | 70 | 1013.7 |
| 20260505171606 | 52 | 7 | 7.0 | 12.0 | 0.00 | 0.00 | 0.00 | 68 | 1013.6 |
| 20260505171106 | 52 | 45 | 5.0 | 15.0 | 0.00 | 0.00 | 0.00 | 68 | 1013.7 |
| 20260505170107 | 52 | 350 | 4.0 | 12.0 | 0.00 | 0.00 | 0.00 | 69 | 1013.8 |
| 20260505164606 | 52 | 35 | 8.0 | 14.0 | 0.00 | 0.00 | 0.00 | 70 | 1013.8 |
| 20260505164105 | 52 | 21 | 7.0 | 14.0 | 0.00 | 0.00 | 0.00 | 69 | 1013.8 |
| 20260505163107 | 53 | 13 | 5.0 | 12.0 | 0.00 | 0.00 | 0.00 | 71 | 1013.7 |
| 20260505161606 | 53 | 17 | 5.0 | 14.0 | 0.00 | 0.00 | 0.00 | 73 | 1013.6 |
| 20260505161106 | 53 | 2 | 9.0 | 14.0 | 0.00 | 0.00 | 0.00 | 73 | 1013.5 |
| 20260505160606 | 53 | 7 | 8.0 | 15.0 | 0.00 | 0.00 | 0.00 | 73 | 1013.5 |
| 20260505160107 | 53 | 35 | 5.0 | 15.0 | 0.00 | 0.00 | 0.00 | 73 | 1013.5 |
| 20260505153106 | 53 | 10 | 8.0 | 20.0 | 0.00 | 0.00 | 0.00 | 73 | 1013.4 |
| 20260505151606 | 53 | 357 | 10.0 | 18.0 | 0.00 | 0.00 | 0.00 | 73 | 1013.5 |
| 20260505150605 | 54 | 14 | 6.0 | 14.0 | 0.00 | 0.00 | 0.00 | 74 | 1013.3 |
| 20260505150106 | 54 | 4 | 7.0 | 16.0 | 0.00 | 0.00 | 0.00 | 74 | 1013.3 |
| 20260505140106 | 55 | 353 | 10.0 | 15.0 | 0.00 | 0.00 | 0.00 | 72 | 1013.1 |
| 20260505130107 | 56 | 49 | 3.0 | 10.0 | 0.00 | 0.00 | 0.00 | 68 | 1012.7 |
| 20260505124105 | 56 | 50 | 6.0 | 12.0 | 0.00 | 0.00 | 0.00 | 67 | 1012.6 |
| 20260505123606 | 56 | 22 | 5.0 | 12.0 | 0.00 | 0.00 | 0.00 | 69 | 1012.6 |
| 20260505123107 | 57 | 8 | 6.0 | 15.0 | 0.00 | 0.00 | 0.00 | 69 | 1012.6 |
| 20260505121606 | 59 | 92 | 5.0 | 9.0 | 0.00 | 0.00 | 0.00 | 63 | 1012.5 |
| 20260505121106 | 60 | 0 | 4.0 | 9.0 | 0.00 | 0.00 | 0.00 | 61 | 1012.5 |
| 20260505120106 | 59 | 333 | 2.0 | 10.0 | 0.00 | 0.00 | 0.00 | 54 | 1012.6 |
| 20260505114606 | 61 | 27 | 3.0 | 8.0 | 0.00 | 0.00 | 0.00 | 56 | 1012.4 |
| 20260505111607 | 58 | 284 | 2.0 | 8.0 | 0.00 | 0.00 | 0.00 | 59 | 1012.6 |
| 20260505111106 | 58 | 4 | 6.0 | 8.0 | 0.00 | 0.00 | 0.00 | 57 | 1012.7 |
| 20260505110605 | 59 | 345 | 3.0 | 8.0 | 0.00 | 0.00 | 0.00 | 57 | 1012.7 |
| 20260505110106 | 59 | 281 | 3.0 | 9.0 | 0.00 | 0.00 | 0.00 | 57 | 1012.7 |
| 20260505101606 | 57 | 333 | 2.0 | 9.0 | 0.00 | 0.00 | 0.00 | 60 | 1012.8 |
| 20260505100605 | 57 | 288 | 3.0 | 9.0 | 0.00 | 0.00 | 0.00 | 60 | 1012.8 |
| 20260505094107 | 57 | 340 | 4.0 | 9.0 | 0.00 | 0.00 | 0.00 | 62 | 1012.9 |
| 20260505093606 | 57 | 343 | 4.0 | 9.0 | 0.00 | 0.00 | 0.00 | 60 | 1012.9 |
| 20260505093105 | 58 | 320 | 3.0 | 9.0 | 0.00 | 0.00 | 0.00 | 61 | 1013.0 |
| 20260505091605 | 59 | 320 | 4.0 | 10.0 | 0.00 | 0.00 | 0.00 | 62 | 1012.8 |
| 20260505091106 | 58 | 349 | 3.0 | 10.0 | 0.00 | 0.00 | 0.00 | 63 | 1012.9 |
| 20260505090606 | 58 | 359 | 4.0 | 10.0 | 0.00 | 0.00 | 0.00 | 64 | 1012.9 |
| 20260505090106 | 57 | 288 | 3.0 | 10.0 | 0.00 | 0.00 | 0.00 | 65 | 1012.9 |